Location: Arbon
(43.0005°N, 0.7472°E)
Time: 16:51:52
(UTC+00:00)

Cosmos 372 Rocket - Pass Details

Date: 07 August 2020
Orbit: 738 x 768 km, 74.1° (Epoch: 23 September)

Event Time Altitude Azimuth Distance (km) Brightness Sun altitude
Exits shadow 04:08:12 - 221° (SW) 2,366 5.9 -8.3°
Reaches altitude 10° 04:08:26 10° 222° (SW) 2,278 5.8 -8.3°
Maximum altitude 04:13:25 47° 295° (WNW) 1,011 4.4 -7.5°
Drops below altitude 10° 04:18:27 10° 9° (N) 2,310 7.1 -6.7°
Sets 04:20:57 0° 16° (NNE) 3,243 8.0 -6.3°
